Powrót do katalogu

STARLINK-30547

AktywnyŁącznośćVLEO
NORAD 58044·PAYLOAD·🇺🇸 United States

Wystrzelony Oct 9, 2023 z Vandenberg Space Force Base

Loading…

Następne Przeloty (najbliższe 24 godziny)

TLE

ŚwieżeSource: CelesTrak SupGP

Epoka: Sep 15, 2026, 01:44 UTC

1 58044C 23156S   26258.07270833  .00036078  00000+0  10657-2 0  2583
2 58044  53.1597   4.9760 0001074  80.0356  61.2001 15.34379346    19

Śledź STARLINK-30547 w czasie rzeczywistym z AllMySat

Download on the App Store